Location: Hawks Ness
(60.2333°N, 1.1667°W)
Time: 01:08:59
(UTC+00:00)

Cosmos 1726 - Pass Details

Date: 26 January 2020
Orbit: 483 x 499 km, 82.5° (Epoch: 27 February)

Event Time Altitude Azimuth Distance (km) Brightness Sun altitude
Rises 17:13:09 0° 335° (NNW) 2,566 5.8 -8.6°
Reaches altitude 10° 17:16:00 10° 311° (NW) 1,680 5.2 -8.9°
Maximum altitude 17:18:03 15° 277° (W) 1,415 5.4 -9.1°
Drops below altitude 10° 17:20:06 10° 243° (WSW) 1,674 6.4 -9.4°
Sets 17:22:56 0° 218° (SW) 2,552 6.9 -9.7°
